Madison, MN

12:02 PM CST on December 07, 2019 (GMT -0600)
Madison-Lac Qui Parle County

Weather History for KDXX - October, 2019

Change the Weather History Date:

Sunday, October 20, 2019

  Actual Average (WUND) Record (WUND)
Temperature  
Mean Temperature 48 °F -  
Max Temperature 62 °F - - (-1)
Min Temperature 35 °F - - (-1)
Degree Days  
Heating Degree Days 16    
Moisture  
Dew Point 38 °F    
Average Humidity 66    
Maximum Humidity 93    
Minimum Humidity 42    
Precipitation  
Precipitation 0.04 in - - ()
Sea Level Pressure  
Sea Level Pressure 29.72 in    
Wind  
Wind Speed 6 mph (SE)    
Max Wind Speed 23 mph    
Max Gust Speed 32 mph    
Visibility 10 miles    
Events Rain    
Averages and records for this station are not official NWS values.
T = Trace of Precipitation, MM = Missing Value Source: NWS Daily Summary

Daily Weather History Graph

Daily Weather History Graph

Search for Another Location

Airport or City:

Astronomy

Oct. 20, 2019 Rise Set
Actual Time 7:46 AM CDT 6:31 PM CDT
Civil Twilight 7:16 AM CDT 7:01 PM CDT
Nautical Twilight 6:42 AM CDT 7:35 PM CDT
Astronomical Twilight 6:08 AM CDT 8:09 PM CDT
Moon 11:31 PM CDT (10/20) 2:26 PM CDT (10/20)
Length of Visible Light 11h 44m
Length of Day
10h 44m
Waning Gibbous, 59% of the Moon is Illuminated
Oct 20
Waning Gibbous
Oct 21
Last Quarter
Oct 27
New
Nov 4
First Quarter
Nov 12
Full

Hourly Weather History & Observations

Time (CDT) Temp. Windchill Dew Point Humidity Pressure Visibility Wind Dir Wind Speed Gust Speed Precip Events Conditions
12:19 AM 41.0 °F 38.0 °F 33.8 °F 76% 29.73 in 10.0 mi SW 4.6 mph - N/A   Clear
12:36 AM 42.8 °F - 33.8 °F 70% 29.72 in 10.0 mi Calm Calm - N/A   Clear
12:56 AM 39.2 °F 37.0 °F 33.8 °F 81% 29.72 in 10.0 mi SSW 3.5 mph - N/A   Clear
1:15 AM 39.2 °F - 33.8 °F 81% 29.71 in 10.0 mi Calm Calm - N/A   Clear
1:16 AM 39.2 °F - 33.8 °F 81% 29.72 in 10.0 mi Calm Calm - N/A   Clear
1:35 AM 39.2 °F - 33.8 °F 81% 29.72 in 10.0 mi Calm Calm - N/A   Clear
1:39 AM 39.2 °F 37.0 °F 33.8 °F 81% 29.73 in 10.0 mi SSW 3.5 mph - N/A   Clear
1:57 AM 37.4 °F 32.8 °F 33.8 °F 87% 29.73 in 10.0 mi South 5.8 mph - N/A   Clear
2:16 AM 37.4 °F - 33.8 °F 87% 29.73 in 10.0 mi Calm Calm - N/A   Clear
2:35 AM 37.4 °F 34.9 °F 33.8 °F 87% 29.73 in 10.0 mi South 3.5 mph - N/A   Clear
2:36 AM 37.4 °F 34.9 °F 33.8 °F 87% 29.73 in 10.0 mi South 3.5 mph - N/A   Clear
2:55 AM 37.4 °F - 33.8 °F 87% 29.73 in 10.0 mi Calm Calm - N/A   Clear
2:56 AM 37.4 °F - 33.8 °F 87% 29.73 in 10.0 mi Calm Calm - N/A   Clear
3:18 AM 37.4 °F 33.8 °F 33.8 °F 87% 29.74 in 10.0 mi South 4.6 mph - N/A   Clear
3:36 AM 35.6 °F 31.7 °F 33.8 °F 93% 29.74 in 10.0 mi South 4.6 mph - N/A   Clear
3:55 AM 37.4 °F 32.1 °F 33.8 °F 87% 29.74 in 10.0 mi South 6.9 mph - N/A   Clear
4:15 AM 37.4 °F 33.8 °F 33.8 °F 87% 29.74 in 10.0 mi South 4.6 mph - N/A   Clear
4:16 AM 37.4 °F 33.8 °F 33.8 °F 87% 29.74 in 10.0 mi South 4.6 mph - N/A   Clear
4:35 AM 37.4 °F 33.8 °F 35.6 °F 93% 29.74 in 10.0 mi South 4.6 mph - N/A   Clear
4:39 AM 37.4 °F 33.8 °F 33.8 °F 87% 29.74 in 10.0 mi South 4.6 mph - N/A   Clear
5:15 AM 39.2 °F 35.0 °F 35.6 °F 87% 29.75 in 10.0 mi South 5.8 mph - N/A   Clear
5:35 AM 37.4 °F 34.9 °F 33.8 °F 87% 29.75 in 10.0 mi South 3.5 mph - N/A   Clear
5:36 AM 37.4 °F 34.9 °F 33.8 °F 87% 29.75 in 10.0 mi South 3.5 mph - N/A   Clear
6:18 AM 35.6 °F 32.8 °F 33.8 °F 93% 29.76 in 10.0 mi SSE 3.5 mph - N/A   Clear
6:37 AM 37.4 °F 32.8 °F 33.8 °F 87% 29.76 in 10.0 mi SSE 5.8 mph - N/A   Clear
6:56 AM 37.4 °F 33.8 °F 33.8 °F 87% 29.76 in 10.0 mi SE 4.6 mph - N/A   Clear
7:15 AM 35.6 °F 32.8 °F 33.8 °F 93% 29.76 in 10.0 mi ESE 3.5 mph - N/A   Clear
7:16 AM 35.6 °F 32.8 °F 33.8 °F 93% 29.76 in 10.0 mi ESE 3.5 mph - N/A   Clear
7:35 AM 37.4 °F 34.9 °F 35.6 °F 93% 29.76 in 10.0 mi ESE 3.5 mph - N/A   Clear
7:57 AM 35.6 °F - 33.8 °F 93% 29.77 in 10.0 mi Calm Calm - N/A   Clear
8:15 AM 35.6 °F 32.8 °F 33.8 °F 93% 29.76 in 10.0 mi East 3.5 mph - N/A   Clear
8:36 AM 37.4 °F 32.8 °F 35.6 °F 93% 29.76 in 10.0 mi East 5.8 mph - N/A   Clear
8:55 AM 41.0 °F 37.1 °F 37.4 °F 87% 29.76 in 10.0 mi East 5.8 mph - N/A   Clear
8:56 AM 41.0 °F 37.1 °F 37.4 °F 87% 29.76 in 10.0 mi East 5.8 mph - N/A   Clear
9:19 AM 44.6 °F 43.1 °F 39.2 °F 81% 29.76 in 10.0 mi ESE 3.5 mph - N/A   Clear
9:36 AM 48.2 °F - 39.2 °F 71% 29.76 in 10.0 mi ESE 5.8 mph - N/A   Clear
10:15 AM 51.8 °F - 39.2 °F 62% 29.77 in 10.0 mi SE 4.6 mph - N/A   Clear
10:35 AM 51.8 °F - 39.2 °F 62% 29.78 in 10.0 mi SE 4.6 mph - N/A   Clear
10:39 AM 51.8 °F - 39.2 °F 62% 29.78 in 10.0 mi SE 6.9 mph - N/A   Clear
10:58 AM 51.8 °F - 39.2 °F 62% 29.78 in 10.0 mi SE 4.6 mph - N/A   Clear
11:15 AM 51.8 °F - 39.2 °F 62% 29.79 in 10.0 mi SSE 6.9 mph - N/A   Clear
11:35 AM 51.8 °F - 41.0 °F 67% 29.80 in 10.0 mi SSE 5.8 mph - N/A   Scattered Clouds
11:36 AM 51.8 °F - 41.0 °F 67% 29.80 in 10.0 mi SSE 4.6 mph - N/A   Scattered Clouds
11:55 AM 53.6 °F - 41.0 °F 62% 29.80 in 10.0 mi SSE 4.6 mph - N/A   Scattered Clouds
12:19 PM 53.6 °F - 42.8 °F 67% 29.80 in 10.0 mi South 3.5 mph - N/A   Light Drizzle
12:36 PM 55.4 °F - 42.8 °F 63% 29.79 in 10.0 mi SSE 4.6 mph - N/A   Clear
12:55 PM 57.2 °F - 42.8 °F 59% 29.78 in 10.0 mi South 5.8 mph - N/A   Clear
1:15 PM 57.2 °F - 42.8 °F 59% 29.77 in 10.0 mi SE 5.8 mph - N/A   Clear
1:16 PM 57.2 °F - 42.8 °F 59% 29.77 in 10.0 mi SE 6.9 mph - N/A   Clear
1:35 PM 60.8 °F - 42.8 °F 52% 29.76 in 10.0 mi SE 8.1 mph - N/A   Clear
1:57 PM 60.8 °F - 42.8 °F 52% 29.75 in 10.0 mi SE 10.4 mph - N/A   Clear
2:15 PM 60.8 °F - 42.8 °F 52% 29.75 in 10.0 mi ESE 10.4 mph - N/A   Clear
2:35 PM 60.8 °F - 42.8 °F 52% 29.75 in 10.0 mi ESE 9.2 mph - N/A   Clear
2:55 PM 60.8 °F - 42.8 °F 52% 29.74 in 10.0 mi ESE 8.1 mph - N/A   Clear
2:56 PM 60.8 °F - 42.8 °F 52% 29.74 in 10.0 mi ESE 6.9 mph - N/A   Clear
3:19 PM 60.8 °F - 42.8 °F 52% 29.72 in 10.0 mi East 9.2 mph - N/A   Clear
3:36 PM 62.6 °F - 42.8 °F 48% 29.72 in 10.0 mi ESE 10.4 mph - N/A   Clear
3:55 PM 62.6 °F - 39.2 °F 42% 29.72 in 10.0 mi SE 11.5 mph - N/A   Clear
3:56 PM 62.6 °F - 39.2 °F 42% 29.72 in 10.0 mi SE 11.5 mph - N/A   Clear
4:15 PM 62.6 °F - 39.2 °F 42% 29.72 in 10.0 mi SE 12.7 mph - N/A   Clear
4:38 PM 62.6 °F - 39.2 °F 42% 29.71 in 10.0 mi SE 11.5 mph - N/A   Clear
4:57 PM 62.6 °F - 39.2 °F 42% 29.71 in 10.0 mi SE 11.5 mph - N/A   Clear
5:16 PM 62.6 °F - 39.2 °F 42% 29.70 in 10.0 mi SE 12.7 mph - N/A   Clear
5:35 PM 60.8 °F - 39.2 °F 45% 29.69 in 10.0 mi ESE 10.4 mph - N/A   Clear
5:36 PM 60.8 °F - 39.2 °F 45% 29.69 in 10.0 mi ESE 10.4 mph - N/A   Clear
5:55 PM 60.8 °F - 39.2 °F 45% 29.68 in 10.0 mi ESE 12.7 mph - N/A   Clear
5:59 PM 60.8 °F - 39.2 °F 45% 29.69 in 10.0 mi ESE 13.8 mph - N/A   Clear
6:17 PM 60.8 °F - 39.2 °F 45% 29.68 in 10.0 mi ESE 9.2 mph - N/A   Clear
6:35 PM 60.8 °F - 39.2 °F 45% 29.68 in 10.0 mi ESE 10.4 mph - N/A   Clear
6:55 PM 60.8 °F - 41.0 °F 48% 29.68 in 10.0 mi ESE 10.4 mph - N/A   Scattered Clouds
6:56 PM 60.8 °F - 41.0 °F 48% 29.68 in 10.0 mi ESE 10.4 mph - N/A   Scattered Clouds
7:15 PM 59.0 °F - 41.0 °F 51% 29.69 in 10.0 mi ESE 9.2 mph - N/A   Mostly Cloudy
7:19 PM 59.0 °F - 41.0 °F 51% 29.69 in 10.0 mi ESE 11.5 mph - N/A   Mostly Cloudy
7:38 PM 59.0 °F - 41.0 °F 51% 29.67 in 10.0 mi ESE 11.5 mph - N/A   Scattered Clouds
7:55 PM 59.0 °F - 41.0 °F 51% 29.66 in 10.0 mi ESE 16.1 mph - N/A   Scattered Clouds
8:15 PM 59.0 °F - 41.0 °F 51% 29.65 in 10.0 mi ESE 17.3 mph - N/A   Clear
8:16 PM 59.0 °F - 41.0 °F 51% 29.65 in 10.0 mi ESE 17.3 mph - N/A   Clear
8:35 PM 59.0 °F - 41.0 °F 51% 29.65 in 10.0 mi ESE 17.3 mph - N/A   Mostly Cloudy
8:36 PM 59.0 °F - 41.0 °F 51% 29.65 in 10.0 mi ESE 17.3 mph - N/A   Mostly Cloudy
8:58 PM 59.0 °F - 39.2 °F 48% 29.64 in 10.0 mi ESE 16.1 mph 27.6 mph N/A   Mostly Cloudy
9:17 PM 60.8 °F - 39.2 °F 45% 29.64 in 10.0 mi ESE 17.3 mph 24.2 mph N/A   Mostly Cloudy
9:36 PM 60.8 °F - 39.2 °F 45% 29.63 in 10.0 mi ESE 19.6 mph 26.5 mph N/A   Overcast
9:55 PM 60.8 °F - 39.2 °F 45% 29.63 in 10.0 mi ESE 19.6 mph 26.5 mph N/A   Overcast
9:56 PM 60.8 °F - 39.2 °F 45% 29.63 in 10.0 mi ESE 21.9 mph 26.5 mph N/A   Overcast
10:15 PM 60.8 °F - 39.2 °F 45% 29.64 in 10.0 mi ESE 18.4 mph - N/A   Overcast
10:37 PM 59.0 °F - 39.2 °F 48% 29.66 in 10.0 mi SE 23.0 mph 31.1 mph N/A   Overcast
10:55 PM 55.4 °F - 44.6 °F 67% 29.67 in 10.0 mi SE 15.0 mph 21.9 mph N/A Rain Light Rain
11:15 PM 53.6 °F - 44.6 °F 72% 29.67 in 10.0 mi SSE 23.0 mph 32.2 mph N/A Rain Heavy Rain
11:16 PM 53.6 °F - 44.6 °F 72% 29.67 in 10.0 mi SSE 20.7 mph 32.2 mph N/A Rain Heavy Rain
11:35 PM 53.6 °F - 44.6 °F 72% 29.64 in 10.0 mi SE 13.8 mph 25.3 mph N/A Rain Light Rain
11:36 PM 53.6 °F - 44.6 °F 72% 29.63 in 10.0 mi SE 13.8 mph 25.3 mph 0.04 in Rain Light Rain
11:58 PM 53.6 °F - 44.6 °F 72% 29.65 in 10.0 mi SE 15.0 mph 21.9 mph N/A Rain Light Rain